Starlink 3576

operational
NORAD ID: 51883 Int'l Des: 2022-022 Owner: SPXS Country: US Constellation: starlink
LEOCIRCULAR

关于 Starlink 3576

正在加载描述...

实时位置

正在加载3D地球...

即将过境

高度历史

Altitude vs Time

uPlot chart will show altitude changes over time

两行轨道根数

1 51883U 22022AH 26036.65819375 .00001644 00000-0 12138-3 0 9997
2 51883 53.2171 143.0962 0001271 92.5724 267.5414 15.08839740218400
Epoch: Feb 5, 2026 • Age: 12 hours

当前状态

高度 541.7 km
速度 7.60 km/s
星下点 35.01°N, 100.46°E
发射日期 Mar 3, 2022
运行时间 3.9 years
类型 internet

技术详情

分类 Payload
质量 297.00 kg
干质量 275.00 kg
总质量 297.00 kg
长度 0.20 m
直径 2.80 m
跨度 9.00 m
形状 Box + pan
制造商 SPXS
平台类型 Starlink
阶段状态 In Orbit
所有者/国家 SPXS/US

大型星座

Loading constellations...